This is the latest recevied weather packets stored in our database for station/object KC1OEK-13. If no packets are shown the sender has not sent any weather packets the latest 10 day(s).
| Time | Temp. | Humidity | Pressure | Rain* | Wind** | Luminosity | Snow |
|---|---|---|---|---|---|---|---|
| 1788033664 | 25° C | 49% | 1024.7 hPa | 0 mm | - | 457 W/m² | - |
| 1788033362 | 25.56° C | 46% | 1024.6 hPa | 0 mm | - | 468 W/m² | - |
| 1788033057 | 26.67° C | 41% | 1024.5 hPa | 0 mm | - | 481 W/m² | - |
| 1788032752 | 26.67° C | 40% | 1024.6 hPa | 0 mm | - | 493 W/m² | - |
| 1788032447 | 26.11° C | 41% | 1024.5 hPa | 0 mm | - | 506 W/m² | - |
| 1788032143 | 25° C | 42% | 1024.5 hPa | 0 mm | - | 516 W/m² | - |
| 1788031838 | 25.56° C | 42% | 1024.6 hPa | 0 mm | - | 526 W/m² | - |
| 1788031532 | 25.56° C | 43% | 1024.6 hPa | 0 mm | - | 536 W/m² | - |
| 1788031227 | 26.11° C | 42% | 1024.6 hPa | 0 mm | - | 547 W/m² | - |
| 1788030926 | 26.67° C | 40% | 1024.6 hPa | 0 mm | - | 555 W/m² | - |
| 1788030626 | 26.11° C | 42% | 1024.7 hPa | 0 mm | - | 563 W/m² | - |
| 1788030326 | 25° C | 42% | 1024.7 hPa | 0 mm | - | 571 W/m² | - |
| 1788030022 | 25° C | 42% | 1024.9 hPa | 0 mm | - | 583 W/m² | - |
| 1788029716 | 25.56° C | 46% | 1024.8 hPa | 0 mm | - | 591 W/m² | - |
| 1788029412 | 25° C | 49% | 1024.7 hPa | 0 mm | - | 597 W/m² | - |
| 1788029110 | 24.44° C | 47% | 1024.8 hPa | 0 mm | - | 606 W/m² | - |
| 1788028805 | 25° C | 46% | 1024.9 hPa | 0 mm | - | 613 W/m² | - |
| 1788028505 | 24.44° C | 47% | 1025 hPa | 0 mm | - | 619 W/m² | - |
| 1788028200 | 25.56° C | 47% | 1025.2 hPa | 0 mm | - | 626 W/m² | - |
| 1788027895 | 25° C | 48% | 1025.1 hPa | 0 mm | - | 631 W/m² | - |
| 1788027590 | 23.89° C | 53% | 1025.2 hPa | 0 mm | - | 633 W/m² | - |
| 1788027284 | 23.89° C | 48% | 1025.1 hPa | 0 mm | - | 641 W/m² | - |
| 1788026984 | 25° C | 46% | 1025.3 hPa | 0 mm | - | 644 W/m² | - |
| 1788026678 | 26.67° C | 49% | 1025.2 hPa | 0 mm | - | 643 W/m² | - |
| 1788026070 | 25.56° C | 48% | 1025.4 hPa | 0 mm | - | 654 W/m² | - |
* Rain latest hour (hover to see other rain measurements)
** Current wind speed in m/s (hover to see current wind gust speed)